Date,TemperatureHighF,TemperatureAvgF,TemperatureLowF,DewpointHighF,DewpointAvgF,DewpointLowF,HumidityHigh,HumidityAvg,HumidityLow,PressureMaxIn,PressureMinIn,WindSpeedMaxMPH,WindSpeedAvgMPH,GustSpeedMaxMPH,PrecipitationSumIn
2013-1-1,46.9,42.6,39.0,46.4,41.6,35.0,98,96,80,30.10,29.98,7,1,12,0.91
2013-1-2,39.0,36.8,35.4,38.0,34.0,31.8,96,89,84,30.23,30.06,5,2,11,0.00
2013-1-3,43.3,34.6,29.2,31.8,28.2,24.4,89,78,57,30.41,30.19,5,2,8,0.00
2013-1-4,46.7,33.7,26.2,29.0,24.7,21.4,87,71,38,30.48,30.38,5,2,9,0.00
2013-1-5,48.7,36.5,24.8,36.6,27.8,22.3,94,74,41,30.44,30.27,5,2,10,0.05
2013-1-6,50.0,41.3,34.8,38.7,35.5,29.0,97,81,58,30.35,30.16,6,2,10,0.00
2013-1-7,56.0,38.7,26.7,33.6,28.5,24.2,91,69,40,30.43,30.31,4,2,8,0.00
2013-1-8,58.4,48.8,37.1,45.4,38.1,29.2,85,67,55,30.39,30.27,7,2,14,0.00
2013-1-9,55.9,53.0,49.4,55.1,51.4,45.1,98,94,84,30.42,30.32,3,1,5,0.25
2013-1-10,63.7,57.8,52.6,58.2,54.6,51.7,97,89,76,30.42,30.08,10,3,21,0.01
2013-1-11,67.0,63.6,61.2,63.5,61.3,58.2,98,92,83,30.11,30.02,10,6,20,0.29
2013-1-12,68.6,66.2,63.5,65.0,62.9,59.2,98,90,76,30.08,29.92,9,4,18,0.03
2013-1-13,67.7,61.0,42.3,63.1,58.0,39.6,97,90,78,30.12,29.90,9,4,17,1.59
2013-1-14,42.3,39.0,34.6,40.7,37.8,33.8,98,95,90,30.30,30.10,6,3,12,1.33
2013-1-15,43.8,40.1,36.7,43.3,39.6,36.2,98,98,98,30.21,29.96,5,2,9,2.08
2013-1-16,42.7,40.3,37.9,42.4,39.9,37.3,99,98,97,30.09,29.95,5,1,11,0.22
2013-1-17,41.8,40.1,37.8,39.3,33.6,28.3,98,78,60,30.25,29.85,19,7,26,0.02
2013-1-18,53.1,38.4,30.0,34.2,28.6,24.6,92,70,40,30.57,30.39,4,1,23,0.00
2013-1-19,54.5,41.1,27.1,33.8,29.4,25.1,96,66,37,30.44,30.21,10,3,23,0.00
2013-1-20,60.7,45.2,33.7,39.3,32.6,27.7,88,63,37,30.24,30.12,5,2,23,0.00
2013-1-21,44.9,35.5,28.3,28.2,19.9,13.2,86,56,30,30.28,30.12,7,2,23,0.00
2013-1-22,36.2,28.9,21.9,14.5,9.7,3.9,63,45,27,30.42,30.26,5,2,23,0.00
2013-1-23,50.1,38.6,29.0,37.7,21.7,9.9,72,51,39,30.41,30.17,8,2,23,0.00
2013-1-24,48.2,37.1,29.7,39.7,19.1,6.7,74,50,29,30.40,30.19,8,3,23,0.00
2013-1-25,38.6,35.8,30.9,37.7,29.3,7.6,97,80,35,30.36,30.12,8,3,23,0.39
2013-1-26,51.8,38.9,31.5,35.6,31.8,28.8,94,77,49,30.35,30.22,3,1,23,0.00
2013-1-27,50.3,42.3,29.9,38.8,33.6,27.8,92,72,56,30.43,30.33,8,3,23,0.00
2013-1-28,57.8,51.6,44.5,50.9,43.4,33.1,89,74,57,30.36,30.21,9,3,23,0.00
2013-1-29,68.2,57.7,47.9,61.1,53.9,46.1,95,88,78,30.21,29.76,11,2,23,0.00
2013-1-30,70.3,54.8,36.7,63.9,50.8,27.1,97,87,67,29.85,29.50,14,7,30,1.97
2013-1-31,45.9,38.3,33.2,31.1,25.4,22.1,73,60,44,30.12,29.85,8,4,30,0.00
2013-2-1,44.2,28.3,20.3,34.7,15.5,7.5,89,60,33,30.46,30.11,9,3,30,0.02
2013-2-2,36.7,28.5,20.0,32.3,24.9,15.8,95,86,77,30.39,30.13,8,3,30,0.04
2013-2-3,50.1,37.9,30.2,37.9,30.1,25.9,98,76,43,30.18,30.05,8,4,30,0.02
2013-2-4,50.0,37.9,25.5,33.5,28.8,23.3,93,72,47,30.17,29.98,6,2,23,0.00
2013-2-5,61.6,49.2,40.6,45.5,40.8,31.6,89,74,55,30.06,29.94,7,2,23,0.01
2013-2-6,65.6,49.1,35.8,43.3,35.6,32.0,95,64,32,30.21,30.06,3,1,23,0.00
2013-2-7,56.2,49.2,43.1,46.6,39.9,32.3,96,71,51,30.13,29.93,5,1,23,0.00
2013-2-8,51.2,44.4,36.1,46.8,39.5,29.5,97,83,65,30.28,29.90,9,4,23,0.09
2013-2-9,60.4,44.5,31.2,31.5,27.5,20.4,84,56,22,30.36,30.21,6,3,23,0.00
2013-2-10,55.8,52.4,47.4,52.6,39.1,27.7,92,64,36,30.23,29.96,11,5,23,0.54
2013-2-11,56.7,52.8,42.7,53.8,42.1,29.1,96,70,39,30.15,29.97,7,2,23,0.01
2013-2-12,52.8,46.0,38.9,39.2,33.7,28.3,83,64,40,30.18,29.82,6,2,23,0.03
2013-2-13,46.9,42.3,39.2,44.0,38.2,33.3,97,86,72,30.03,29.70,8,2,23,0.08
2013-2-14,56.1,44.4,33.1,38.9,34.9,29.4,89,70,50,30.11,30.00,8,2,23,0.00
2013-2-15,54.1,43.4,35.2,42.0,33.3,26.8,93,68,52,30.12,30.03,8,2,18,0.00
2013-2-16,38.1,31.5,24.6,27.6,19.2,10.7,77,61,40,30.21,30.07,9,3,17,0.00
2013-2-17,46.7,32.4,18.7,20.1,14.9,10.5,79,51,27,30.33,30.21,6,2,13,0.00
2013-2-18,60.4,43.9,24.8,36.7,26.4,18.9,82,54,34,30.32,29.97,12,5,28,0.04
2013-2-19,52.7,43.9,35.1,42.6,28.0,9.0,97,59,20,30.23,29.93,11,4,18,0.38
2013-2-20,40.7,33.1,27.9,20.1,17.5,11.8,70,53,33,30.29,30.19,5,2,13,0.00
2013-2-21,56.0,40.0,26.6,42.1,24.9,16.9,91,59,22,30.25,29.96,9,3,15,0.53
2013-2-22,50.2,47.8,45.2,45.8,44.2,42.0,94,87,82,30.08,29.99,8,4,16,0.13
2013-2-23,59.9,51.0,40.4,49.7,43.9,34.0,95,77,68,30.02,29.84,7,2,13,0.05
2013-2-24,59.5,44.8,32.4,34.0,28.4,20.9,88,57,23,30.09,29.95,5,2,10,0.00
2013-2-25,59.2,47.9,36.5,45.0,31.7,24.1,85,54,35,30.03,29.72,10,3,18,0.02
2013-2-26,49.1,45.2,38.2,45.5,41.3,34.9,95,86,67,29.76,29.50,12,6,28,0.58
2013-2-27,53.0,42.7,38.7,37.5,33.8,28.9,85,71,52,29.91,29.76,8,4,15,0.00
2013-2-28,38.7,36.8,34.9,30.8,27.8,25.0,76,70,62,30.05,29.86,6,2,10,0.00
2013-3-1,39.4,35.9,33.3,31.8,30.2,27.5,93,80,70,30.05,30.00,5,1,9,0.00
2013-3-2,35.9,33.4,29.8,31.3,27.7,23.4,92,80,70,30.12,29.99,6,2,10,0.00
2013-3-3,39.5,31.8,27.5,24.4,20.4,16.5,80,64,45,30.15,30.08,6,3,12,0.00
2013-3-4,53.4,42.0,25.9,31.5,25.2,18.3,84,54,32,30.22,29.97,7,2,14,0.00
2013-3-5,55.7,47.8,33.2,54.1,41.8,24.8,97,80,47,29.97,29.65,24,6,24,0.94
2013-3-6,39.6,34.0,31.6,29.4,25.8,22.1,78,72,63,30.29,29.94,24,4,24,0.00
2013-3-7,47.4,36.5,31.2,33.2,28.5,26.0,83,73,56,30.39,30.27,7,4,12,0.00
2013-3-8,58.2,37.1,26.3,33.7,26.7,17.6,93,72,22,30.40,30.28,7,3,11,0.00
2013-3-10,70.5,66.1,63.2,43.2,35.9,31.7,48,33,26,30.07,29.92,12,8,22,0.00
2013-3-11,63.2,53.5,40.4,53.3,47.2,35.0,96,81,48,29.93,29.71,15,6,25,1.27
2013-3-12,54.9,44.4,37.4,35.3,31.4,28.3,82,62,39,30.15,29.92,7,3,18,0.00
2013-3-13,46.4,39.1,31.0,30.1,24.6,19.1,75,57,38,30.37,30.12,9,3,18,0.00
2013-3-14,31.0,29.7,28.6,19.8,19.3,18.9,68,65,62,30.39,30.37,3,2,18,0.00
2013-3-16,77.5,71.1,63.7,50.6,48.2,45.8,58,45,34,29.89,29.78,12,5,18,0.00
2013-3-17,71.5,63.0,55.8,54.4,49.5,46.4,76,62,45,29.94,29.82,13,6,22,0.00
2013-3-18,59.7,59.1,58.7,58.6,57.4,56.6,96,94,92,29.79,29.73,6,3,16,0.36
2013-3-19,60.9,48.5,37.4,45.3,29.2,13.7,88,53,22,30.15,29.92,7,3,13,0.00
2013-3-20,55.6,44.0,34.7,32.2,21.3,13.4,73,43,23,30.16,29.94,10,3,15,0.00
2013-3-21,44.0,33.7,23.1,24.7,13.9,7.6,67,45,29,30.07,29.96,6,3,12,0.00
2013-3-22,46.8,38.9,30.4,35.0,23.6,16.3,82,55,40,30.09,30.00,3,1,9,0.03
2013-3-23,55.9,46.1,38.1,46.8,41.1,33.0,95,83,70,30.03,29.75,7,2,9,0.56
2013-3-24,59.3,50.3,38.1,53.9,45.4,27.1,97,84,62,29.76,29.38,13,4,23,1.01
2013-3-25,38.2,34.1,31.6,28.3,26.2,23.8,85,73,60,30.11,29.71,11,4,31,0.00
2013-3-26,39.2,34.2,31.1,29.6,27.0,25.3,89,75,62,30.36,30.10,6,2,13,0.01
2013-3-27,51.8,39.2,27.2,29.0,25.9,23.8,88,61,36,30.40,30.30,7,2,15,0.00
2013-3-28,59.5,44.5,27.7,33.3,29.0,24.1,88,57,34,30.40,30.27,8,2,16,0.00
2013-3-29,55.9,45.2,35.3,40.9,35.7,31.3,86,70,47,30.35,30.21,4,2,9,0.00
2013-3-30,66.3,52.4,42.2,54.0,45.8,40.3,97,81,43,30.23,29.96,11,2,20,0.52
2013-3-31,60.9,56.2,51.8,57.6,54.6,50.4,97,94,80,29.96,29.85,8,3,12,0.33
2013-4-1,66.3,53.2,40.5,53.2,43.6,36.3,98,74,40,30.10,29.89,6,2,12,0.01
2013-4-2,55.7,46.0,36.6,38.0,27.2,21.1,74,50,30,30.26,30.09,6,3,12,0.00
2013-4-3,57.4,50.2,41.7,28.3,23.6,19.6,53,36,25,30.24,30.14,7,4,13,0.00
2013-4-4,52.5,44.2,41.7,43.1,39.7,23.5,96,86,32,30.16,29.98,5,2,13,1.02
2013-4-5,66.5,53.2,42.4,46.7,38.8,30.6,96,64,29,30.11,29.99,7,3,14,0.02
2013-4-6,73.3,58.4,39.6,45.1,38.6,32.5,87,52,27,30.17,30.02,7,2,13,0.00
2013-4-7,74.2,64.5,53.9,48.1,45.0,39.3,67,50,35,30.13,29.99,9,4,21,0.00
2013-4-8,76.8,65.8,52.2,57.4,52.2,46.5,82,63,48,30.07,29.97,12,4,20,0.00
2013-4-9,81.9,70.2,55.8,59.1,55.3,51.3,85,61,42,30.15,29.97,12,3,17,0.00
2013-4-10,82.5,71.3,58.2,60.1,56.9,52.9,85,61,44,30.06,29.82,9,3,16,0.00
2013-4-11,77.8,68.9,59.5,64.7,59.5,56.6,97,73,54,29.84,29.46,12,4,20,1.57
2013-4-12,66.5,56.8,48.3,60.9,43.3,36.1,93,63,36,29.96,29.57,6,3,15,0.13
2013-4-13,75.0,58.1,42.6,44.9,38.7,25.9,88,55,19,30.08,29.96,6,2,15,0.00
2013-4-14,67.5,55.7,47.3,53.3,45.7,38.6,87,71,38,30.03,29.89,12,2,22,0.03
2013-4-15,80.7,66.9,55.8,60.1,56.1,51.5,91,70,45,30.06,29.90,6,2,22,0.00
2013-4-16,79.8,71.5,66.3,66.1,62.3,58.4,79,73,62,30.18,30.05,6,3,22,0.00
2013-4-17,85.9,74.8,61.6,67.8,64.7,59.1,96,72,53,30.16,30.01,11,3,22,0.68
2013-4-18,80.2,71.6,61.3,62.6,59.4,55.5,96,68,44,30.01,29.70,12,5,22,0.01
2013-4-19,73.4,54.3,40.7,64.7,46.4,31.9,96,76,57,30.14,29.62,12,4,22,1.57
2013-4-20,63.9,48.4,32.3,39.3,32.2,27.0,96,59,27,30.29,30.13,5,2,10,0.00
2013-4-23,75.2,69.0,62.7,51.9,48.0,37.3,65,48,38,30.18,29.98,6,3,11,0.00
2013-4-24,67.1,57.3,46.0,61.0,51.4,38.3,95,81,66,30.24,29.96,8,3,14,0.35
2013-4-25,69.0,53.0,39.1,41.4,35.3,25.0,87,56,20,30.36,30.23,4,2,10,0.00
2013-4-26,74.4,55.8,39.3,50.5,40.3,33.6,96,61,27,30.38,30.25,4,1,9,0.27
2013-4-27,60.2,54.2,50.1,54.9,51.9,49.3,97,92,80,30.37,30.04,8,2,15,1.52
2013-4-28,61.3,58.5,56.1,59.9,57.0,54.7,97,95,84,30.07,29.90,8,2,13,3.23
2013-4-29,73.8,63.0,56.1,58.9,56.6,53.9,98,81,53,30.02,29.90,5,1,7,0.00
2013-4-30,81.6,64.8,48.9,62.1,53.9,48.1,98,72,39,30.07,29.94,5,1,9,0.00
2013-5-1,78.0,69.4,60.5,72.6,58.2,54.0,89,69,46,30.14,30.04,3,1,7,0.04
2013-5-2,75.0,65.1,54.8,61.9,56.8,51.5,89,75,60,30.15,30.05,2,1,7,0.00
2013-5-3,73.6,63.4,59.2,58.7,56.0,53.1,87,77,54,30.07,29.88,4,1,10,0.03
2013-5-4,61.9,52.6,46.1,54.6,51.1,44.9,97,95,73,29.93,29.83,4,1,10,3.44
2013-5-5,66.3,51.8,45.6,55.9,48.8,44.8,98,90,61,29.91,29.73,7,1,14,1.09
2013-5-6,58.7,51.0,46.2,52.9,48.8,45.4,97,93,71,29.91,29.75,2,0,4,0.55
2013-5-7,74.6,57.9,45.5,56.5,50.5,44.7,98,79,44,29.99,29.89,3,1,11,0.00
2013-5-8,76.2,67.6,55.3,63.5,59.0,52.2,93,75,53,30.04,29.96,3,1,7,0.00
2013-5-9,81.2,66.8,52.9,65.1,58.6,52.1,97,77,49,30.10,29.98,4,1,8,0.00
2013-5-10,70.1,64.3,56.6,62.8,59.3,55.5,97,84,72,30.04,29.90,4,1,8,0.03
2013-5-11,77.7,65.6,54.5,65.6,59.1,50.1,97,81,59,29.99,29.87,3,1,9,0.12
2013-5-12,67.5,56.3,44.3,51.5,38.4,31.3,92,54,28,30.16,29.98,3,1,8,0.00
2013-5-13,71.1,54.3,37.4,42.3,37.6,29.9,95,58,26,30.26,30.13,3,1,7,0.00
2013-5-14,80.3,62.3,41.6,60.0,50.2,38.8,92,67,46,30.24,30.03,5,2,10,0.00
2013-5-15,89.3,72.6,59.8,62.6,55.9,48.4,87,60,29,30.14,29.96,4,1,7,0.00
2013-5-16,85.4,70.1,56.8,66.1,58.4,53.7,92,69,38,30.05,29.92,4,1,9,0.00
2013-5-17,76.8,67.0,61.2,68.1,62.6,56.9,96,86,69,30.06,29.97,2,0,5,0.63
2013-5-18,78.8,70.3,63.8,71.9,67.2,62.8,98,90,74,30.02,29.94,3,1,5,0.12
2013-5-19,71.7,66.6,59.8,69.5,65.4,59.2,98,96,89,30.06,29.92,4,0,8,1.05
2013-5-20,83.6,69.3,58.0,71.5,64.6,57.4,98,86,61,30.09,29.96,3,1,6,0.01
2013-5-21,88.1,71.8,62.7,73.7,66.0,61.7,98,84,51,30.01,29.85,4,1,9,0.00
2013-5-22,83.3,73.0,63.7,70.2,66.0,62.1,97,80,58,29.91,29.79,4,1,9,0.17
2013-5-23,82.7,69.5,60.5,69.8,61.1,54.4,98,77,43,30.02,29.87,4,1,8,0.00
2013-5-24,73.9,63.5,52.6,55.9,50.1,44.5,87,64,37,30.26,30.01,3,1,10,0.00
2013-5-25,80.7,62.6,46.9,53.2,47.2,40.3,92,62,26,30.32,30.15,2,0,5,0.00
2013-5-26,83.0,66.6,50.5,58.7,52.4,45.1,86,63,32,30.25,30.13,2,0,5,0.00
2013-5-27,86.1,71.0,54.7,64.4,59.1,52.4,94,68,39,30.19,30.05,4,1,7,0.00
2013-5-28,87.1,73.3,60.2,66.6,61.7,58.2,94,69,43,30.14,30.03,3,1,11,0.00
2013-5-29,87.5,75.8,64.8,69.5,63.0,57.4,80,65,49,30.16,30.04,3,1,5,0.00
2013-5-30,83.6,77.0,71.4,70.6,66.6,63.4,81,71,60,30.15,30.03,4,1,9,0.00
2013-5-31,82.6,76.1,70.9,69.5,66.6,64.4,82,73,60,30.12,29.98,4,1,9,0.00
2013-6-1,83.9,75.0,67.5,75.5,68.7,64.2,97,81,65,30.02,29.90,4,1,11,0.22
2013-6-2,84.0,72.1,64.8,73.4,67.6,63.3,98,87,61,29.94,29.83,2,0,6,0.42
2013-6-3,83.6,71.2,63.0,68.9,63.2,59.4,97,78,49,29.98,29.87,2,0,6,0.00
2013-6-4,86.0,71.0,58.2,67.6,61.7,56.6,95,75,48,30.01,29.93,2,0,6,0.00
2013-6-5,78.8,67.4,61.4,71.9,65.1,59.4,98,92,78,30.00,29.86,3,0,6,1.39
2013-6-6,84.2,73.5,67.0,73.2,68.9,66.0,97,87,60,29.88,29.71,4,1,8,0.17
2013-6-7,84.2,70.9,64.9,72.0,67.3,64.0,98,89,59,29.84,29.69,2,0,5,0.04
2013-6-8,81.6,71.1,63.3,69.6,65.3,62.7,98,83,60,30.03,29.83,2,0,6,0.00
2013-6-9,79.8,70.4,64.3,72.8,68.3,62.2,98,93,77,30.03,29.91,2,0,5,1.41
2013-6-10,83.8,72.9,66.5,71.3,68.0,65.6,98,86,61,29.95,29.85,3,2,8,0.99
2013-6-11,91.3,76.5,66.2,77.5,70.2,65.3,98,83,50,30.01,29.93,2,0,6,0.00
2013-6-12,93.3,79.3,69.3,79.7,73.3,68.3,98,83,47,30.03,29.90,2,0,5,0.00
2013-6-13,89.7,78.3,72.0,77.9,71.3,65.9,95,80,63,29.91,29.72,3,1,9,0.00
2013-6-14,84.7,73.1,60.5,66.4,61.0,57.8,93,68,44,30.00,29.86,3,1,8,0.00
2013-6-15,86.9,73.5,60.2,69.6,63.4,57.5,92,72,46,30.08,29.99,2,1,7,0.00
2013-6-16,88.3,74.0,63.4,75.3,67.7,61.6,96,82,52,30.09,29.94,3,1,8,0.00
2013-6-17,83.6,71.2,67.2,75.6,69.0,66.3,97,93,74,30.01,29.88,2,0,7,0.54
2013-6-18,79.0,71.2,66.3,73.8,68.4,64.2,98,91,76,29.92,29.83,3,1,6,0.81
2013-6-19,87.9,72.5,61.7,71.4,66.4,60.8,98,83,48,30.06,29.91,3,0,6,0.01
2013-6-20,87.2,71.9,63.3,72.4,67.5,62.4,98,87,56,30.17,30.05,4,0,8,1.20
2013-6-21,85.9,72.7,64.8,72.6,67.9,63.9,98,86,54,30.22,30.11,2,0,7,0.02
2013-6-22,88.1,74.0,63.2,71.5,66.5,62.3,98,80,48,30.20,30.05,2,0,6,0.01
2013-6-23,88.1,75.2,63.1,73.3,68.2,61.9,97,80,57,30.16,30.03,2,0,5,0.01
2013-6-24,88.0,76.3,66.2,73.9,70.0,65.3,98,82,55,30.17,30.03,3,1,7,0.00
2013-6-25,88.0,80.8,72.3,77.0,74.2,70.2,95,81,65,30.09,29.96,3,1,8,0.00
2013-6-26,89.6,79.3,69.5,77.4,73.2,68.6,98,83,61,30.02,29.84,3,1,8,0.00
2013-6-27,79.0,76.7,74.8,73.2,72.2,70.6,90,86,79,29.90,29.82,3,2,8,0.00
2013-6-28,89.5,76.6,67.5,76.1,70.4,66.2,97,83,59,29.71,29.64,4,1,6,0.50
2013-6-29,87.3,77.7,66.3,73.1,65.7,60.0,98,69,43,29.68,29.62,2,0,5,0.05
2013-6-30,81.9,72.3,64.0,72.2,66.5,62.1,96,83,56,29.78,29.66,3,0,5,0.08
2013-7-1,83.6,69.5,61.0,71.5,65.3,59.9,97,87,64,29.89,29.75,3,0,8,0.10
2013-7-2,78.3,69.6,64.1,70.9,66.4,63.2,98,90,70,30.02,29.87,2,0,4,0.00
2013-7-3,75.1,70.0,67.3,72.1,68.2,65.7,97,94,90,30.09,30.01,1,0,3,0.07
2013-7-6,69.5,68.1,67.4,68.9,67.4,66.3,98,98,96,30.12,30.06,2,0,7,4.26
2013-7-7,79.7,69.7,67.7,73.4,68.7,67.1,99,97,80,30.12,30.06,2,0,4,1.14
2013-7-9,74.5,74.1,73.4,73.6,73.2,72.5,97,97,97,30.05,30.04,0,0,1,0.00
2013-7-10,87.3,76.4,69.6,80.0,73.4,68.1,98,91,75,30.05,29.87,3,1,5,0.85
2013-7-11,87.1,75.3,69.1,78.1,71.9,68.5,98,90,72,29.96,29.83,2,0,4,0.07
2013-7-12,84.5,74.0,66.1,73.2,67.3,60.5,97,81,54,29.96,29.87,3,1,8,0.00
2013-7-13,87.0,73.1,60.7,73.2,66.9,59.4,96,82,58,30.04,29.92,3,1,7,0.00
2013-7-14,84.5,77.6,69.9,76.4,72.1,68.4,95,83,73,30.17,30.02,2,1,8,0.11
2013-7-15,89.5,78.0,71.0,74.3,71.0,68.2,97,80,56,30.25,30.16,2,0,5,0.06
2013-7-16,84.4,72.5,68.5,76.0,70.5,67.9,98,94,75,30.29,30.23,1,0,3,0.00
2013-7-18,93.1,84.3,74.5,78.3,75.5,72.8,95,76,56,30.12,30.00,2,0,4,0.00
2013-7-19,92.0,79.7,70.0,78.1,73.4,69.1,97,83,58,30.08,29.92,2,0,5,0.00
2013-7-20,90.6,79.1,70.3,77.0,73.3,69.3,97,83,59,29.99,29.86,3,1,6,0.00
2013-7-21,85.0,74.4,69.9,76.9,72.2,69.0,97,93,75,29.98,29.89,3,1,6,1.16
2013-7-22,82.8,74.7,69.9,75.7,70.8,69.0,98,88,68,29.95,29.83,3,1,8,0.01
2013-7-23,83.0,74.2,69.4,75.9,71.3,67.7,97,91,79,29.91,29.78,4,1,10,0.28
2013-7-24,85.0,75.8,69.6,76.6,71.8,68.6,98,88,70,29.88,29.80,3,0,10,0.00
2013-7-27,84.4,77.1,69.5,74.9,71.7,68.6,97,84,65,29.92,29.85,2,1,6,0.05
2013-7-28,83.8,72.1,63.6,70.9,66.3,59.3,98,83,58,30.06,29.90,2,0,6,0.00
2013-7-29,82.5,68.8,57.4,67.7,60.7,55.1,94,77,49,30.17,30.04,2,0,5,0.00
2013-7-30,90.2,73.4,62.0,73.5,66.7,60.3,96,81,49,30.22,30.06,2,0,5,0.18
2013-7-31,77.5,71.0,66.8,73.0,69.6,65.9,98,95,85,30.11,29.93,2,0,6,0.59
2013-8-1,81.4,73.5,71.0,73.8,71.3,70.4,98,93,74,29.97,29.92,2,0,5,0.00
2013-8-2,71.6,70.1,68.6,67.9,67.1,66.5,93,90,86,30.01,29.99,1,0,1,0.00
2013-8-3,80.9,72.9,64.5,74.6,69.5,63.6,97,89,78,30.03,29.96,2,0,4,0.00
2013-8-4,87.3,76.3,67.1,74.2,68.7,61.6,96,79,56,30.06,29.98,3,0,7,0.00
2013-8-5,87.8,72.4,61.2,72.2,65.0,58.6,95,79,47,30.06,29.94,2,0,4,0.00
2013-8-6,70.1,68.7,67.9,66.6,65.9,65.1,93,91,88,29.96,29.94,0,0,1,0.00
2013-8-8,71.1,70.9,70.6,70.5,70.3,70.0,98,98,98,29.97,29.97,0,0,1,0.03
2013-8-9,89.9,77.3,69.0,78.2,73.1,68.4,98,88,63,30.04,29.94,3,1,8,0.00
2013-8-10,83.7,75.5,71.6,77.6,73.7,71.0,98,94,81,30.08,30.02,3,0,4,0.03
2013-8-11,82.5,74.3,71.8,77.6,72.9,71.2,98,95,81,30.12,30.07,2,0,6,0.25
2013-8-15,77.0,70.7,66.8,69.2,64.3,59.5,84,80,75,30.05,29.99,1,0,3,0.00
2013-8-16,78.2,69.2,63.5,67.2,63.4,59.1,93,83,64,30.08,30.01,2,0,4,0.00
2013-8-17,74.4,67.9,64.5,68.0,65.1,63.0,97,91,73,30.11,30.05,1,0,3,0.02
2013-8-18,79.0,70.2,65.5,70.5,67.1,64.2,97,90,72,30.15,30.07,3,0,7,0.05
2013-8-19,83.0,72.4,67.9,74.6,69.4,66.3,97,91,72,30.12,30.02,1,0,4,0.05
2013-8-20,82.3,74.4,69.2,75.1,71.1,68.0,97,90,75,30.13,30.05,2,0,6,0.00
2013-8-21,79.9,73.2,70.2,74.6,71.5,69.2,98,95,81,30.18,30.08,3,0,4,0.14
2013-8-22,86.5,73.4,68.9,77.1,71.8,68.3,99,95,71,30.16,30.02,3,0,6,0.55
2013-8-23,92.0,74.6,67.2,77.1,69.9,66.2,99,87,50,30.07,29.95,4,0,12,0.03
2013-8-24,90.3,75.2,64.7,75.7,69.3,64.1,99,83,55,30.20,30.04,2,0,5,0.00
2013-8-25,86.4,73.6,64.5,70.7,65.6,61.2,96,78,47,30.32,30.20,2,0,4,0.00
2013-8-26,88.0,71.4,60.0,69.5,64.7,59.1,98,82,49,30.29,30.13,2,0,6,0.00
2013-8-27,90.9,73.3,61.8,73.6,67.3,61.2,98,84,50,30.14,30.01,2,0,5,0.00
2013-8-28,90.4,75.8,65.3,76.1,70.2,64.6,98,85,55,30.06,29.96,2,0,4,0.00
2013-8-29,92.6,78.6,67.9,77.0,72.4,67.2,98,83,54,30.02,29.90,2,0,4,0.00
2013-8-30,89.5,76.1,70.5,79.3,73.6,69.8,98,92,64,29.97,29.88,3,0,7,0.69
2013-8-31,90.4,78.6,71.8,79.5,73.0,70.5,96,84,64,29.87,29.81,2,0,3,0.05
2013-9-1,89.9,75.7,70.4,77.4,71.6,69.7,98,88,55,29.90,29.80,4,1,9,0.03
2013-9-2,84.0,74.8,68.9,75.9,71.4,68.0,98,90,70,29.93,29.81,4,1,8,0.00
2013-9-3,90.2,77.8,70.4,75.2,70.0,65.3,98,79,49,29.98,29.84,2,1,4,0.00
2013-9-4,87.0,73.6,66.1,68.7,65.7,62.4,89,78,50,30.11,30.01,1,0,2,0.00
2013-9-5,86.0,71.3,60.1,69.7,63.8,59.0,97,79,50,30.14,30.07,2,0,5,0.00
2013-9-6,90.0,73.0,60.8,69.5,64.5,59.5,96,77,45,30.15,30.03,2,0,4,0.00
2013-9-7,88.0,73.5,61.4,73.6,67.5,60.2,97,83,59,30.10,29.96,3,1,7,0.00
2013-9-8,90.5,74.3,65.5,74.9,69.6,64.6,98,87,54,30.00,29.91,2,0,3,0.00
2013-9-9,89.0,74.9,67.6,77.4,71.3,66.2,97,90,61,30.08,29.98,2,0,5,0.30
2013-9-10,89.9,77.3,69.2,75.3,70.9,67.4,98,82,55,30.18,30.07,2,0,5,0.00
2013-9-11,91.5,76.3,66.2,73.8,69.4,65.3,98,82,50,30.20,30.06,2,0,5,0.00
2013-9-12,89.3,75.1,67.1,74.8,69.4,66.0,97,84,56,30.07,29.88,3,0,10,0.06
2013-9-13,81.0,69.6,57.8,68.4,61.1,52.7,98,77,45,29.96,29.86,3,1,7,0.01
2013-9-14,81.3,63.9,49.3,60.5,54.1,47.6,95,73,43,30.05,29.95,2,0,5,0.00
2013-9-16,86.5,74.5,62.0,67.7,63.9,60.1,97,71,48,30.16,30.07,2,0,5,0.00
2013-9-17,66.0,64.8,63.9,62.3,61.8,61.4,92,90,88,30.14,30.12,1,0,2,0.00
2013-9-18,80.8,73.0,67.1,68.2,64.4,59.6,88,75,60,30.19,30.08,2,1,6,0.00
2013-9-19,87.5,75.4,64.3,70.4,66.5,61.9,95,76,51,30.17,30.01,2,0,5,0.00
2013-9-20,87.8,72.6,60.9,68.8,65.2,60.0,98,80,49,30.05,29.83,3,0,6,0.00
2013-9-21,71.2,64.7,57.3,68.6,62.9,55.6,97,94,88,29.84,29.73,2,0,4,1.90
2013-9-22,78.0,62.5,51.0,60.1,55.5,50.5,98,80,48,29.91,29.82,3,1,7,0.01
2013-9-23,82.0,69.3,54.7,65.2,60.8,53.1,95,76,49,29.99,29.90,2,0,5,0.00
2013-9-24,70.5,64.5,57.1,65.4,61.6,55.8,96,90,82,30.00,29.85,2,0,6,0.03
2013-9-25,68.7,66.1,64.2,66.8,65.1,63.3,98,97,93,29.86,29.80,1,0,3,0.65
2013-9-26,82.4,69.2,61.2,68.8,63.9,59.4,98,85,53,30.01,29.85,2,0,7,0.00
2013-9-27,82.9,69.0,57.4,64.7,60.2,56.3,97,76,43,30.12,30.00,2,0,4,0.00
2013-9-28,80.3,66.2,58.1,63.6,59.2,56.1,97,80,49,30.20,30.07,2,0,6,0.00
2013-9-29,75.0,63.7,55.9,62.1,58.6,53.8,97,85,60,30.12,29.99,2,0,6,0.00
2013-9-30,59.1,56.3,54.8,57.7,55.5,54.0,98,97,94,30.07,30.01,1,0,6,0.01
2013-10-5,66.8,66.7,66.7,64.7,64.6,64.6,93,93,93,29.95,29.95,0,0,0,0.01
2013-10-6,79.0,69.1,55.5,72.6,65.6,54.6,97,89,73,29.95,29.77,4,1,8,0.87
2013-10-7,69.5,59.0,51.8,54.9,52.6,48.8,97,82,50,30.07,29.87,4,1,8,0.01
2013-10-8,76.1,60.6,47.0,59.5,52.6,45.4,95,77,48,30.12,30.04,2,1,7,0.00
2013-10-9,80.6,64.2,54.3,64.8,58.4,52.9,96,83,55,30.18,30.07,2,0,3,0.00
2013-10-10,80.1,64.5,54.4,64.9,57.9,53.6,98,82,48,30.15,30.01,2,0,6,0.00
2013-10-11,80.5,61.8,48.5,60.8,53.9,47.7,97,78,40,30.09,29.99,2,0,4,0.00
2013-10-12,80.1,62.4,50.0,63.6,56.0,48.9,97,82,48,30.12,30.02,1,0,3,0.00
2013-10-13,82.0,65.0,52.2,63.2,57.1,51.1,97,78,46,30.22,30.11,2,0,6,0.01
2013-10-14,81.4,66.9,56.3,65.5,60.3,54.8,96,81,56,30.21,30.06,0,0,1,0.00
2013-10-15,71.5,65.0,61.5,61.7,60.4,58.6,95,86,69,30.11,30.01,2,0,5,0.00
2013-10-16,71.2,63.7,59.6,63.9,61.0,58.3,97,91,75,30.04,29.90,2,0,6,0.08
2013-10-17,66.8,61.3,49.7,66.2,59.3,48.8,98,93,81,29.99,29.85,3,1,5,0.32
2013-10-18,66.6,53.9,46.7,54.5,49.7,46.2,98,87,55,30.09,29.95,2,0,3,0.00
2013-10-19,68.1,53.9,43.5,57.3,50.0,42.2,97,88,61,30.04,29.91,3,1,8,0.00
2013-10-20,70.1,49.2,36.3,48.7,41.5,34.6,97,79,30,30.12,30.01,2,0,4,0.01
2013-10-21,69.1,51.5,36.0,50.8,44.2,35.2,98,80,37,30.14,29.99,3,0,6,0.00
2013-10-22,65.2,54.8,48.0,56.0,50.8,46.9,97,87,71,30.03,29.86,1,0,3,0.00
2013-10-23,55.4,47.1,35.9,48.9,39.5,33.5,97,76,49,30.13,29.84,4,1,8,0.00
2013-10-24,57.5,45.4,36.4,45.5,39.2,29.5,95,80,59,30.33,30.12,3,1,16,0.00
2013-10-25,54.9,39.9,29.6,31.9,28.5,25.8,87,66,39,30.48,30.33,3,1,10,0.00
2013-10-26,59.0,42.8,26.0,39.9,31.4,24.6,96,68,32,30.36,30.15,4,1,10,0.00
2013-10-27,62.2,54.3,47.2,53.5,47.9,39.0,94,79,62,30.15,30.07,4,1,7,0.00
2013-10-28,61.0,54.9,50.0,57.4,53.4,49.2,97,95,87,30.27,30.11,2,0,4,0.00
2013-10-29,72.4,59.8,51.7,60.7,55.8,50.9,98,88,64,30.33,30.19,1,0,5,0.01
2013-10-30,76.8,64.0,54.7,62.3,57.3,53.8,98,81,50,30.26,30.09,3,0,7,0.00
2013-10-31,72.3,66.1,60.2,65.4,60.5,55.3,95,83,72,30.10,29.63,6,2,17,0.11
2013-11-1,72.9,62.1,47.9,64.6,53.4,45.1,97,76,41,29.83,29.66,6,1,10,0.25
2013-11-2,65.7,51.9,42.5,50.1,43.6,37.9,97,78,38,29.95,29.82,3,1,8,0.01
2013-11-3,63.2,48.8,38.9,41.9,38.3,33.6,95,70,37,30.32,30.14,3,0,8,0.00
2013-11-4,65.8,53.0,36.7,41.9,38.3,34.6,93,60,40,30.41,30.30,4,2,11,0.00
2013-11-5,66.5,56.6,48.2,44.6,40.1,35.7,68,54,41,30.43,30.27,3,1,11,0.00
2013-11-6,70.2,62.9,54.7,59.6,54.8,36.7,95,75,49,30.27,30.04,5,1,11,0.01
2013-11-8,58.1,44.3,32.4,31.7,27.1,20.9,82,55,25,30.41,30.28,4,1,9,0.00
2013-11-9,57.2,45.4,30.2,38.3,33.3,27.0,90,65,41,30.35,30.23,3,1,7,0.00
2013-11-12,41.1,35.3,29.1,32.3,20.1,15.9,73,54,40,30.57,30.38,7,4,18,0.00
2013-11-13,49.6,33.7,22.1,21.2,18.1,14.9,80,55,27,30.69,30.49,4,1,12,0.00
2013-11-14,59.4,39.5,22.0,26.9,20.2,15.4,88,52,20,30.52,30.28,3,1,12,0.00
2013-11-15,55.1,47.4,35.5,47.8,38.1,20.6,96,72,41,30.28,30.13,2,0,3,0.13
2013-11-16,60.9,55.3,47.9,56.3,52.6,46.8,96,91,83,30.19,30.08,3,1,7,0.00
2013-11-17,66.1,63.0,61.6,64.9,60.1,57.8,96,90,86,29.91,29.89,4,2,6,1.43
2013-11-18,65.8,56.3,44.4,58.1,42.0,31.7,94,61,33,30.17,29.89,5,1,16,0.00
2013-11-19,54.4,45.5,36.3,31.7,29.2,25.5,76,54,34,30.24,30.13,6,3,14,0.00
2013-11-20,60.2,48.2,33.1,39.1,33.2,28.5,84,58,36,30.31,30.17,4,1,9,0.00
2013-11-21,62.3,56.0,52.5,51.7,47.1,39.0,85,72,60,30.33,30.24,4,1,8,0.00
2013-11-22,58.0,56.4,54.3,57.1,54.8,51.4,97,94,85,30.29,30.18,2,0,6,0.00
2013-11-23,45.1,37.0,29.6,33.7,26.7,20.7,73,66,57,30.43,30.33,6,3,16,0.01
2013-11-24,38.5,29.9,22.5,20.7,12.1,4.5,73,50,25,30.60,30.42,7,3,15,0.00
2013-11-25,41.2,34.6,26.7,32.5,19.5,10.4,95,57,31,30.49,30.20,2,1,12,0.00
2013-11-26,42.7,37.9,33.3,41.9,36.6,31.5,97,95,88,30.21,29.79,5,2,12,0.04
2013-11-27,34.7,30.0,21.1,31.5,22.6,14.4,89,74,58,30.37,29.86,7,3,15,0.00
2013-11-28,45.1,29.5,17.3,25.7,20.0,13.5,89,70,43,30.53,30.37,2,0,8,0.00
2013-11-29,54.7,37.5,24.0,29.1,25.1,21.1,89,64,34,30.61,30.49,3,1,6,0.00
2013-11-30,56.7,40.9,28.1,34.1,28.0,24.6,89,63,33,30.54,30.31,3,1,8,0.00
2013-12-1,52.2,35.8,28.0,36.8,29.4,25.4,92,78,55,30.31,30.16,4,0,7,0.00
2013-12-2,49.1,48.1,46.1,48.3,47.3,45.0,98,97,96,29.91,29.80,0,0,2,0.07
2013-12-3,55.6,52.0,47.4,53.7,50.7,46.9,98,95,91,29.86,29.80,1,0,2,0.01
2013-12-4,72.5,63.4,54.9,62.8,58.8,53.2,96,86,66,29.94,29.83,5,1,10,0.00
2013-12-5,74.4,66.7,51.0,66.8,63.0,48.8,93,88,75,29.98,29.86,4,2,9,0.05
2013-12-6,51.1,42.9,36.5,48.9,41.7,34.5,97,95,92,30.26,29.90,4,2,8,1.41
2013-12-7,37.6,35.5,33.8,34.7,33.0,31.5,95,90,86,30.44,30.25,5,3,11,0.00
2013-12-8,47.9,42.9,35.4,47.4,42.2,34.1,98,97,94,30.33,30.08,3,1,5,1.30
2013-12-9,54.4,45.1,37.4,49.1,43.4,36.1,98,94,81,30.17,30.05,4,1,8,0.30
2013-12-10,41.7,33.7,25.4,36.6,30.3,24.3,97,88,65,30.41,30.03,5,1,11,0.32
2013-12-11,51.8,35.0,21.8,32.6,25.5,20.3,96,72,34,30.51,30.37,2,1,7,0.00
2013-12-12,44.2,31.6,23.8,26.3,18.8,9.3,84,62,26,30.58,30.44,3,1,7,0.00
2013-12-13,47.4,35.0,20.7,28.2,22.2,17.1,88,62,41,30.46,30.15,3,0,6,0.00
2013-12-14,50.4,47.0,39.2,49.6,42.3,24.5,97,85,43,30.15,29.80,4,1,9,0.55
2013-12-15,39.2,34.2,31.3,36.7,30.4,28.2,91,86,79,30.25,29.92,5,1,11,0.00
2013-12-16,50.8,38.7,28.6,38.5,32.6,27.0,95,80,62,30.29,30.15,4,2,8,0.00
2013-12-17,60.2,45.4,35.5,40.5,34.1,26.0,84,66,43,30.27,30.05,5,3,12,0.00
2013-12-18,52.0,38.1,25.8,28.9,25.0,22.9,90,62,35,30.38,30.26,3,1,6,0.00
2013-12-19,60.0,43.4,26.7,34.0,28.2,23.6,89,59,29,30.33,30.15,4,1,8,0.00
2013-12-20,61.2,48.8,40.9,49.1,37.6,30.0,86,65,54,30.17,30.04,3,1,6,0.01
2013-12-21,72.8,68.0,62.1,66.2,64.4,60.9,97,89,78,29.89,29.74,8,3,15,0.49
2013-12-22,72.8,57.4,53.7,65.9,55.3,52.3,98,93,78,30.05,29.73,6,2,12,2.21
2013-12-23,53.8,39.7,31.9,52.5,35.2,26.6,96,84,74,30.40,30.02,4,2,11,0.00
2013-12-24,37.1,29.8,22.0,27.7,20.4,15.1,81,69,45,30.53,30.38,4,2,11,0.00
2013-12-25,48.6,32.3,19.5,26.5,21.7,15.2,87,67,38,30.50,30.35,3,0,5,0.00
2013-12-26,41.2,30.0,25.0,31.7,26.2,23.5,95,86,66,30.43,30.36,2,0,4,0.00
2013-12-27,54.9,37.7,24.8,31.0,25.1,22.0,91,64,29,30.50,30.38,2,0,4,0.00
2013-12-28,43.0,36.4,28.6,40.6,32.2,23.0,97,85,65,30.41,29.96,2,0,3,0.92
2013-12-29,48.9,42.2,37.3,44.4,40.3,35.6,98,93,76,30.07,29.90,2,1,5,0.28
2013-12-30,40.6,36.6,32.2,39.4,32.7,29.6,96,86,76,30.27,30.07,3,1,7,0.00
2013-12-31,43.5,33.9,28.8,30.0,27.1,25.7,92,77,53,30.50,30.27,3,0,5,0.00
2014-1-1,52.0,35.9,23.9,34.2,28.7,22.7,96,77,45,30.38,30.08,3,0,7,0.00
2014-1-2,45.1,34.1,21.3,44.3,30.5,14.1,97,87,73,30.29,29.83,6,2,18,0.31